Weather History for Lanai City, HI

Change the Weather History Date:

Friday, November 18, 2011

  Actual Average Record
Temperature  
Mean Temperature 70 °F -  
Max Temperature 75 °F 78 °F 84 °F (2013)
Min Temperature 64 °F 63 °F 57 °F (1951)
Cooling Degree Days 4    
Growing Degree Days 20 (Base 50)    
Moisture  
Dew Point 65 °F    
Average Humidity 80    
Maximum Humidity 94    
Minimum Humidity 71    
Precipitation  
Precipitation 0.00 in - - ()
Sea Level Pressure  
Sea Level Pressure 30.06 in    
Wind  
Wind Speed 3 mph (NNE)    
Max Wind Speed 14 mph    
Max Gust Speed -    
Visibility 10 miles    
Events      
Averages and records for this station are not official NWS values.
T = Trace of Precipitation, MM = Missing Value Source: NWS Daily Summary

Daily Weather History Graph

Daily Weather History Graph

Search for Another Location

Airport:

Trip Planner

Search our weather history database for the weather conditions in past years. The results will help you decide how hot, cold, wet, or windy it might be!

Date:

Astronomy

Nov. 18, 2011 Rise Set
Actual Time 6:39 AM HST 5:46 PM HST
Civil Twilight 6:16 AM HST 6:09 PM HST
Nautical Twilight 5:49 AM HST 6:36 PM HST
Astronomical Twilight 5:22 AM HST 7:03 PM HST
Moon 12:00 AM HST (11/18) 12:49 PM HST (11/18)
Length of Visible Light 11h 53m
Length of Day
11h 06m
Waning Gibbous, 47% of the Moon is Illuminated
Nov 18
Waning Gibbous
Nov 24
New
Dec 1
First Quarter
Dec 10
Full
Dec 17
Last Quarter

Hourly Weather History & Observations

Time (HST) Temp. Dew Point Humidity Pressure Visibility Wind Dir Wind Speed Gust Speed Precip Events Conditions
12:56 AM 66.9 °F 63.9 °F 90% 30.06 in 10.0 mi Calm Calm - N/A   Clear
1:56 AM 69.8 °F 64.4 °F 83% 30.11 in 10.0 mi Calm Calm - N/A   Partly Cloudy
2:56 AM 66.9 °F 63.9 °F 90% 30.05 in 10.0 mi Calm Calm - N/A   Clear
3:56 AM 68.0 °F 63.9 °F 87% 30.03 in 10.0 mi Calm Calm - N/A   Scattered Clouds
4:56 AM 66.2 °F 64.4 °F 94% 30.08 in 10.0 mi Calm Calm - N/A   Clear
5:56 AM 64.9 °F 61.9 °F 90% 30.05 in 10.0 mi Calm Calm - N/A   Clear
6:56 AM 68.9 °F 63.9 °F 84% 30.06 in 10.0 mi NNE 12.7 mph - N/A   Clear
7:56 AM 70.0 °F 64.9 °F 84% 30.07 in 10.0 mi Calm Calm - N/A   Clear
8:56 AM 72.9 °F 64.9 °F 76% 30.07 in 10.0 mi NNE 8.1 mph - N/A   Clear
9:56 AM 74.8 °F 64.9 °F 71% 30.07 in 10.0 mi NE 10.4 mph - N/A   Clear
10:42 AM 73.4 °F 66.2 °F 78% 30.12 in 10.0 mi Calm Calm - N/A   Mostly Cloudy
10:56 AM 75.2 °F 66.2 °F 73% 30.12 in 10.0 mi SW 11.5 mph - N/A   Mostly Cloudy
11:56 AM 73.9 °F 64.9 °F 73% 30.05 in 10.0 mi Calm Calm - N/A   Overcast
12:12 PM 73.4 °F 64.4 °F 73% 30.10 in 10.0 mi Calm Calm - N/A   Mostly Cloudy
12:56 PM 72.9 °F 63.9 °F 73% 30.03 in 10.0 mi Calm Calm - N/A   Overcast
1:56 PM 73.4 °F 64.4 °F 73% 30.07 in 10.0 mi Calm Calm - N/A   Overcast
2:04 PM 73.4 °F 64.4 °F 73% 30.07 in 10.0 mi Calm Calm - N/A   Overcast
2:56 PM 73.9 °F 64.9 °F 73% 30.02 in 10.0 mi Calm Calm - N/A   Overcast
3:18 PM 73.4 °F 64.4 °F 73% 30.08 in 10.0 mi NW 4.6 mph - N/A   Overcast
3:44 PM 73.4 °F 64.4 °F 73% 30.08 in 10.0 mi NNE 6.9 mph - N/A   Mostly Cloudy
3:56 PM 72.9 °F 64.9 °F 76% 30.02 in 10.0 mi NE 13.8 mph - N/A   Mostly Cloudy
4:56 PM 72.0 °F 65.8 °F 81% 30.02 in 10.0 mi NE 9.2 mph - N/A   Clear
5:56 PM 70.9 °F 65.8 °F 84% 30.04 in 10.0 mi NNE 9.2 mph - N/A   Clear
6:56 PM 70.0 °F 64.9 °F 84% 30.05 in 10.0 mi NNE 6.9 mph - N/A   Clear
7:56 PM 70.0 °F 64.9 °F 84% 30.06 in 10.0 mi NNE 8.1 mph - N/A   Clear
8:56 PM 70.0 °F 64.9 °F 84% 30.06 in 10.0 mi NNE 9.2 mph - N/A   Clear
9:56 PM 68.9 °F 63.9 °F 84% 30.07 in 10.0 mi ENE 5.8 mph - N/A   Clear
10:56 PM 68.9 °F 63.9 °F 84% 30.06 in 10.0 mi ENE 8.1 mph - N/A   Clear
11:56 PM 68.9 °F 63.9 °F 84% 30.06 in 10.0 mi Calm Calm - N/A   Clear